Weather in Conwy

United Kingdom     53°16′59″N   3°49′56″W
temp.,
°C
wind,
m/s
gust,
m/s
humid.,
%
clouds,
%
prec.,
mm/h
press.,
hPa
HPBL,
m
23 april, fri
fri2301:00+5s34764 0.0 102855
04:00+4sse34770 0.0 102753
07:00+4sse34730 0.0 102775
10:00+12se363397 0.0 1027581
13:00+15se4630100 0.0 1027981
16:00+15sse4538100 0.0 10261067
19:00+12se3659100 0.0 1027524
22:00+7sse2278100 0.0 102835
24 april, sat
sat2401:00+6sse3478100 0.0 102785
04:00+4sse3471100 0.0 102763
07:00+5sse3565100 0.0 1028114
10:00+11se3747100 0.0 1028616
13:00+14ese5642100 0.0 10281104
16:00+14e46430 0.0 10281347
19:00+12e36600 0.0 1028833
22:00+6se311880 0.0 1030290
25 april, sun
sun2501:00+4se36880 0.0 1031161
04:00+2se33977 0.0 103173
07:00+2se24941 0.0 1031150
10:00+9ese36574 0.0 1030722
13:00+12ene4548100 0.0 10291031
16:00+12ne4551100 0.0 10281125
19:00+10ne2476100 0.0 1028233
22:00+5sse22927 0.0 102831
26 april, mon
mon2601:00+3sse22884 0.0 102744
04:00+2sse22877 0.0 102739
07:00+3sse227430 0.0 102544
10:00+11e1250100 0.0 1023578
13:00+13nne3348100 0.0 10211058
16:00+12n2254100 0.0 1019712
19:00+10nw12655 0.0 1017213
22:00+9wsw2271100 0.0 101660
27 april, tue
tue2701:00+7wnw2695100 0.3 1014565
04:00+5wnw249871 0.3 1013115
07:00+6n479155 0.7 1012536
10:00+8n5685100 0.3 1012915
13:00+8nne468897 0.9 1012743
16:00+7ne598896 0.6 1012992
19:00+6ne5994100 1.2 1014874
22:00+5ne5994100 0.7 1016849